Flag for United Kingdom Weather past 2 weeks in Watford, England, United Kingdom

Now
64 °F

Partly sunny.


Feels Like: 64 °F
Forecast: 47 / 64 °F
Wind: 6 mph from North

Location: Northolt

Current Time: Sep 22, 2014 at 4:11:54 PM

Latest Report: Sep 22, 2014 at 3:50 PM


Visibility: N/A

Pressure: 30.24 "Hg

Humidity: 49%

Dew point: 45 °F

Location of WatfordLocation

Historic Weather in Watford — Graph

°F

Watford temperature yesterday

Maximum temperature yesterday: 64 °F (at 2:50 PM)
Minimum temperature yesterday: 48 °F (at 11:50 PM)
Average temperature yesterday: 58 °F

Past Weeks' High & Low Weather Summary

 TemperatureHumidityPressure
High77 °F (Sep 18, 2:50 PM)100% (Sep 8, 6:50 AM)30.33 "Hg (Sep 8, 6:50 AM)
Low43 °F (Sep 22, 5:50 AM)40% (Sep 8, 5:50 PM)29.77 "Hg (Sep 18, 2:50 PM)
Average61 °F76%30.09 "Hg
* Reported Sep 7 2:50 PM — Sep 22 2:50 PM, Watford, Weather by CustomWeather, © 2014

Note: Actual official high and low records may vary slightly from our data, if they occured in-between our weather recording intervals... More about our weather records

Advertising

Watford weather history for previous 24 hours

 ConditionsComfort  
Time TempWeatherWind HumidityBarometerVisibility
2:50 PM
Sep 22
64 °FPartly sunny.7 mph49%30.27 "HgN/A
1:50 PM63 °FPartly sunny.6 mph49%30.27 "HgN/A
12:50 PM61 °FPartly sunny.7 mph55%30.30 "HgN/A
11:50 AM61 °FPartly sunny.7 mph55%30.30 "HgN/A
10:50 AM57 °FSunny.5 mph63%30.30 "Hg10 mi
9:50 AM54 °FSunny.5 mph72%30.30 "Hg10 mi
8:50 AM48 °FSunny.3 mph87%30.33 "Hg10 mi
7:50 AM45 °FPartly sunny.3 mph100%30.33 "Hg6 mi
6:50 AM43 °FFog.3 mph93%30.30 "HgN/A
5:50 AM43 °FClear.2 mph93%30.30 "HgN/A
4:50 AM45 °FClear.3 mph93%30.30 "Hg6 mi
3:50 AM45 °FClear.3 mph93%30.30 "HgN/A
2:50 AM45 °FClear.2 mph93%30.33 "Hg6 mi
1:50 AM46 °FClear.3 mph93%30.33 "HgN/A
12:50 AM48 °FPassing clouds.3 mph94%30.33 "HgN/A
11:50 PM
Sep 21
48 °FPassing clouds.2 mph94%30.33 "HgN/A
10:50 PM50 °FClear.3 mph88%30.33 "HgN/A
9:50 PM52 °FClear.3 mph82%30.30 "HgN/A
8:50 PM55 °FClear.6 mph72%30.30 "HgN/A
7:50 PM57 °FSunny.7 mph67%30.30 "Hg10 mi
6:50 PM61 °FPartly sunny.10 mph55%30.27 "HgN/A
5:50 PM61 °FSunny.8 mph59%30.27 "Hg10 mi
4:50 PM63 °FPartly sunny.12 mph52%30.24 "HgN/A
Weather by CustomWeather, © 2014

See weather overviewHow to use our weather pages